Theta_e
279 280 279 280 279 278 278 278 278 277 278 278 277 279 281 281 277 274 278 277 278 281 283 285 285 285 285 284 284 282 281 281 281 281 281 281 281 281 281 281 281 280 280 280 280 280 280 280 280 280 281 281 281 281 281 281 280 280 280 279 279 278 278 277 277 277 277 277 277 276 276 275 275 275 275 274 274 274 274 274 274 274 274 273 273 272 272
275 276 277 278 276 277 277 276 277 277 277 277 278 279 280 280 279 280 280 280 279 282 283 285 286 286 284 282 280 280 281 281 281 281 281 281 281 281 281 281 280 280 280 280 280 280 280 280 280 280 280 281 281 281 280 280 280 280 280 279 278 278 277 277 277 277 277 277 276 276 275 275 275 274 274 274 274 273 273 273 273 273 273 273 272 272 272
271 274 276 276 275 274 273 275 276 276 277 277 278 278 278 279 279 280 280 279 279 284 286 285 286 280 280 280 281 280 280 280 281 281 281 281 281 281 281 281 281 281 280 280 280 279 279 279 279 280 280 280 281 281 281 280 280 280 279 278 278 277 277 277 277 277 276 276 276 275 275 275 274 274 274 274 273 273 273 273 273 273 273 272 272 272 272
266 266 269 271 272 272 271 272 273 274 274 273 275 275 277 276 276 278 277 276 277 282 283 280 281 279 281 280 280 280 280 280 281 281 281 281 281 281 281 281 281 280 280 280 279 279 279 279 279 280 280 280 280 280 280 280 280 279 279 278 278 277 277 277 277 276 276 276 275 275 274 274 274 274 274 273 273 273 273 272 272 273 272 272 272 272 272
264 268 269 269 269 270 270 271 273 274 274 276 274 277 277 278 279 276 273 275 281 281 280 280 280 279 280 279 280 279 280 280 281 281 282 282 282 282 282 282 281 281 281 280 280 280 280 280 280 280 280 280 280 281 280 280 279 278 278 278 277 277 277 277 276 276 276 275 275 274 274 274 274 274 273 273 273 272 272 272 272 272 272 272 271 272 271
257 262 265 267 266 263 265 272 274 274 274 274 274 274 275 277 279 278 279 280 279 279 278 279 281 281 283 282 282 282 283 282 281 282 282 282 282 282 282 282 282 282 282 281 281 281 281 281 281 281 281 280 280 280 280 279 278 278 278 278 277 277 277 276 276 276 276 275 275 274 274 274 274 273 273 273 273 273 272 272 272 272 272 271 271 271 271
263 262 268 267 259 266 273 274 275 275 275 275 276 276 276 276 278 280 279 280 280 281 281 281 281 281 282 281 281 282 282 283 283 283 282 282 282 282 282 282 283 282 282 282 281 281 281 281 281 280 280 280 279 279 279 278 278 278 278 277 277 277 276 276 276 276 276 275 275 274 274 274 273 273 273 273 273 272 272 272 271 271 272 271 271 271 271
261 263 260 261 262 265 275 276 274 274 274 274 275 274 276 277 277 278 278 279 281 280 280 279 280 280 281 280 280 281 283 283 284 282 283 283 283 283 284 283 283 283 282 282 282 281 282 281 281 280 280 280 279 278 278 278 278 278 278 277 277 277 276 276 276 276 275 275 275 274 274 273 273 273 273 273 272 272 272 273 273 273 272 272 272 271 271
262 259 257 267 270 274 272 272 275 274 274 273 274 270 273 273 274 277 277 278 278 277 276 278 279 277 278 279 281 279 280 282 283 285 284 284 284 285 285 285 285 285 284 283 283 282 281 281 281 280 280 279 279 278 277 277 277 277 277 276 276 276 276 276 276 276 276 275 275 274 274 273 273 273 272 272 273 273 272 273 272 272 272 272 272 272 271
265 264 263 262 262 262 265 273 275 276 275 274 275 274 275 275 273 275 277 275 275 275 275 277 276 278 278 277 278 279 279 279 281 283 283 282 284 284 285 285 284 284 284 284 283 283 281 281 281 281 280 279 278 277 277 277 276 276 276 276 276 276 276 276 276 276 276 276 275 275 274 273 273 273 273 273 273 274 273 272 272 272 272 272 272 272 271
260 262 261 259 260 268 271 276 276 275 274 274 274 272 270 275 275 275 276 276 275 275 277 278 277 277 274 275 277 279 278 280 279 281 282 283 283 284 284 285 285 285 285 285 284 283 282 281 281 281 280 278 278 277 277 276 276 276 276 276 276 276 276 276 276 276 276 276 276 275 274 274 274 273 273 273 274 274 273 273 272 272 272 271 271 272 271
262 259 260 264 265 269 272 273 274 274 274 277 276 267 265 277 276 275 276 276 275 276 276 277 276 274 275 274 276 277 279 278 278 280 281 282 281 282 283 284 285 285 285 284 283 282 281 281 281 281 280 278 277 277 277 277 276 276 276 276 277 277 277 276 276 276 276 276 276 276 275 275 274 274 274 274 274 274 274 273 273 272 272 272 271 271 271
266 269 263 261 268 275 277 278 275 275 275 277 267 265 272 276 275 276 276 276 277 278 277 277 279 278 276 276 278 278 275 280 282 281 281 281 281 282 282 283 284 284 284 285 284 283 283 283 282 281 280 278 278 277 277 276 276 277 277 277 277 277 277 276 276 276 276 276 276 276 276 276 276 275 275 275 274 274 273 273 273 272 272 271 271 271 271
266 265 265 266 268 277 279 276 277 277 276 267 264 275 276 276 277 275 277 278 277 278 279 279 278 278 277 277 277 276 276 278 279 278 277 279 281 280 281 281 282 283 283 284 284 284 284 283 282 281 280 279 278 278 277 277 277 278 278 278 277 277 277 276 276 276 276 276 277 276 277 276 276 275 275 275 275 274 274 273 272 272 272 271 271 271 271
263 262 262 263 264 275 278 278 277 277 273 274 276 275 275 276 277 277 276 278 278 278 278 278 278 277 277 277 277 276 274 274 277 277 278 280 281 281 281 280 280 283 282 283 283 283 283 282 282 281 280 279 279 278 278 278 279 278 278 278 277 277 277 276 276 276 276 276 276 277 277 277 276 275 275 275 275 274 273 273 272 271 271 271 270 270 270
266 265 264 267 276 277 279 281 278 277 279 278 277 277 278 275 275 277 277 277 278 279 278 277 278 277 277 278 278 278 278 277 277 276 277 277 278 278 279 281 281 282 283 283 283 283 283 282 282 281 280 279 279 278 278 280 279 278 278 278 277 277 276 276 276 276 276 276 276 277 277 277 276 276 275 275 274 274 273 273 272 271 271 271 270 270 269
272 270 273 278 277 277 280 282 280 280 282 278 276 277 277 278 278 275 277 280 278 279 279 278 277 278 277 279 278 279 279 276 276 277 278 279 280 281 281 281 281 281 283 283 282 282 282 282 282 282 281 280 280 279 280 280 279 278 278 278 277 277 276 276 276 276 276 276 276 276 276 277 276 275 275 275 274 274 273 272 272 271 271 270 270 270 269
277 279 280 280 278 277 279 283 283 280 277 276 277 279 278 278 277 277 279 277 277 278 279 280 278 279 279 278 279 278 279 279 278 277 276 277 277 278 278 279 280 281 282 281 281 282 281 282 282 282 282 281 280 281 281 281 280 279 278 277 277 276 276 276 276 276 275 275 275 276 276 276 276 276 275 275 274 273 273 272 272 271 271 270 270 270 269
275 277 281 280 280 281 281 282 283 283 281 280 278 278 280 280 278 277 278 277 276 277 278 280 281 280 279 279 279 278 278 278 278 278 279 279 278 278 279 280 279 279 278 281 280 281 281 281 282 282 282 282 282 283 282 281 280 279 278 277 277 277 276 276 276 276 275 275 275 275 275 275 275 275 275 274 274 273 273 272 272 272 271 271 270 270 269
278 281 279 280 281 281 282 283 283 283 284 282 281 282 281 280 278 278 279 277 277 276 277 279 280 280 279 278 279 280 279 279 280 279 279 279 278 278 278 278 279 278 280 281 281 281 281 281 281 282 282 282 283 283 282 281 280 279 278 277 277 276 276 276 276 276 275 275 275 275 275 275 274 274 274 274 273 273 272 272 271 271 271 271 270 270 270
279 281 282 282 280 284 284 283 282 283 283 283 282 281 281 280 280 280 279 278 280 278 280 280 279 280 280 279 280 280 279 278 278 279 279 279 279 279 277 276 277 280 280 281 281 281 282 282 281 281 282 282 283 283 282 281 280 279 278 277 277 276 276 276 276 276 276 276 275 275 275 275 275 275 274 274 274 274 274 274 273 272 272 272 272 272 272
276 278 281 281 277 278 283 284 285 286 285 283 282 281 279 279 280 281 281 280 279 279 280 279 279 279 281 280 279 279 280 280 279 279 278 278 278 278 278 277 276 278 279 280 281 281 282 282 281 281 281 282 283 282 282 281 280 280 279 278 277 277 276 276 276 276 275 275 275 275 275 274 274 274 274 276 276 274 274 275 276 278 277 273 273 273 272
278 283 283 281 283 283 285 286 283 283 284 283 283 283 282 282 281 282 281 280 279 278 279 279 279 279 280 281 280 279 279 279 280 280 279 279 277 278 277 275 275 276 278 279 280 280 281 281 281 281 281 282 282 282 282 281 281 280 280 279 278 277 277 276 276 276 276 275 275 275 275 275 274 274 273 275 279 279 278 276 276 278 279 278 278 277 274
284 285 284 280 281 283 285 285 282 283 282 281 282 282 282 282 282 281 280 281 281 281 280 279 280 280 281 281 281 280 280 280 279 279 279 279 280 279 277 277 278 277 277 277 278 280 281 281 281 281 281 281 282 282 281 281 281 281 280 280 279 278 278 277 277 276 276 276 275 275 275 275 274 274 273 273 273 277 278 277 278 278 279 279 279 278 278
283 287 284 282 283 284 286 286 284 284 282 281 283 283 283 282 281 280 280 280 280 281 282 283 281 280 281 281 281 281 281 281 281 281 281 281 280 279 278 277 277 277 278 279 279 280 280 280 281 281 281 282 282 281 281 281 281 281 280 280 280 279 279 278 278 277 276 276 275 275 274 274 274 274 273 273 272 273 275 278 278 279 279 279 279 279 278
286 287 285 278 279 282 285 282 284 285 284 282 281 282 283 283 283 281 280 281 282 281 281 282 282 280 280 281 281 281 281 281 282 282 281 280 279 278 278 277 278 279 279 279 279 279 279 279 280 280 280 282 282 281 281 281 281 281 281 281 281 281 280 279 278 277 277 276 276 275 275 275 275 274 274 274 274 274 273 273 274 276 278 279 279 279 279
286 286 285 282 281 283 285 284 284 287 284 282 282 284 285 285 283 283 283 282 282 282 281 282 282 282 280 280 281 281 281 282 281 281 281 281 280 281 281 280 280 279 279 279 279 279 279 279 279 279 280 281 281 280 280 280 280 280 281 281 281 280 280 279 279 278 278 277 277 276 276 275 275 275 274 274 275 274 273 272 272 272 272 275 277 278 277
285 286 285 282 281 283 284 286 286 286 285 284 283 283 284 282 280 280 281 281 281 280 280 281 281 279 280 280 279 280 280 279 280 281 281 281 281 282 282 281 280 279 279 279 279 280 279 279 278 279 279 281 280 280 280 280 280 280 281 281 281 281 281 279 280 279 279 278 278 277 276 276 276 275 275 274 274 274 274 273 273 272 272 273 274 276 277
284 284 285 285 285 286 287 286 284 284 285 285 283 282 281 281 281 280 281 282 282 280 281 280 279 280 281 281 279 280 280 281 280 280 281 281 281 281 281 280 280 279 279 279 279 279 279 278 278 278 279 280 279 279 279 279 280 280 280 281 281 281 281 280 280 280 279 279 278 278 277 276 276 275 275 275 274 274 274 274 273 273 273 273 273 273 275
284 284 283 283 284 284 284 283 283 284 285 285 284 281 280 280 281 282 283 283 281 281 282 281 279 279 279 279 279 280 280 281 281 282 282 281 281 280 280 279 277 274 275 277 278 278 278 278 278 278 279 280 279 279 279 279 280 280 280 281 281 281 281 281 280 280 279 278 278 278 277 276 276 275 275 275 274 274 274 273 273 272 272 272 272 272 272
284 283 282 283 283 283 282 282 283 284 284 284 284 283 281 279 280 282 283 284 283 282 281 280 280 280 279 279 280 280 281 281 282 281 281 281 280 280 279 277 278 278 278 278 279 278 278 278 278 279 280 278 277 278 279 279 280 279 279 280 280 280 280 280 280 280 280 279 278 278 277 276 276 275 275 275 274 274 274 273 272 272 272 272 271 271 272
282 280 280 281 282 282 282 283 283 283 283 284 283 282 283 282 280 280 282 282 283 283 283 281 280 280 281 281 281 280 280 280 280 280 280 280 280 279 278 278 279 279 281 280 280 279 279 278 278 279 279 278 277 277 278 279 279 279 279 277 279 279 279 279 280 280 279 279 278 278 277 277 276 276 275 274 274 274 273 273 272 272 272 271 271 272 273
280 278 277 279 280 281 281 282 282 282 283 283 283 284 284 284 283 283 283 284 283 283 283 283 282 281 281 281 281 280 280 280 279 279 279 279 279 279 277 277 278 279 280 280 280 280 279 279 279 280 279 279 278 277 277 278 279 279 279 279 279 278 276 278 279 279 278 278 278 278 278 277 277 276 275 275 274 274 273 273 272 272 271 272 272 272 273
282 282 283 282 282 281 280 281 282 282 283 284 284 283 283 283 283 283 283 284 284 283 283 284 283 282 281 280 280 280 279 277 278 279 278 279 279 279 278 277 277 277 278 279 279 279 279 279 279 279 279 278 277 276 277 277 278 279 279 278 278 277 277 277 278 278 278 277 277 277 277 277 277 277 276 275 275 274 273 273 272 272 271 271 272 272 272
285 285 286 285 284 284 284 284 283 283 282 282 283 282 283 283 283 283 284 284 283 284 285 283 283 282 281 280 280 280 279 279 280 281 281 281 280 279 277 276 275 275 276 277 277 278 279 279 279 279 278 277 276 276 276 276 277 278 277 278 277 277 277 276 277 277 277 277 277 276 276 276 276 273 275 275 275 274 273 272 272 272 271 271 271 271 271
284 284 285 285 285 284 284 284 284 284 284 283 283 283 283 283 283 283 283 283 284 284 284 283 282 280 280 280 280 280 279 280 280 281 281 282 280 276 276 275 275 275 276 277 278 278 277 278 276 276 278 277 276 276 276 276 276 277 277 276 276 276 276 276 276 276 277 277 276 276 277 276 275 276 275 275 275 274 273 273 272 271 271 271 271 270 270
285 284 284 284 285 285 284 284 284 284 284 284 284 283 283 283 283 284 284 284 284 283 283 282 280 280 281 281 281 281 281 281 281 281 281 281 277 275 276 276 276 276 277 277 279 278 277 278 276 275 276 278 277 275 274 273 276 276 276 276 276 275 275 274 274 275 275 276 276 276 276 275 275 275 274 275 274 274 273 273 272 271 271 271 270 269 269
287 285 285 284 285 284 284 285 285 285 284 283 283 284 284 284 285 284 284 283 283 283 282 281 281 282 282 281 280 280 281 280 280 281 280 279 276 276 275 276 277 277 276 279 274 275 277 276 274 274 276 276 275 275 274 272 273 275 276 275 275 275 274 274 274 274 275 275 274 276 276 276 276 275 275 275 275 274 273 273 272 271 271 270 270 269 268
286 286 286 285 285 285 285 285 285 284 284 283 284 284 284 285 285 284 283 283 283 282 281 281 281 280 280 280 280 280 280 280 281 281 280 278 275 277 278 279 280 280 281 276 275 275 274 274 274 275 275 275 275 275 272 271 271 275 275 275 275 274 274 274 274 274 274 274 274 274 274 275 275 275 275 274 274 273 272 272 272 271 271 270 270 269 268
286 285 285 285 284 285 285 285 284 284 284 284 284 284 284 284 284 284 283 283 284 282 282 281 279 280 280 280 280 280 281 281 281 280 278 276 275 276 277 278 279 280 280 274 275 276 273 271 272 274 274 274 274 274 272 272 271 274 274 274 274 274 274 273 273 273 273 273 274 271 274 274 274 274 274 273 273 273 273 272 271 271 270 270 270 269 268
286 286 286 285 285 285 285 284 284 284 284 284 284 284 285 284 284 283 282 283 284 282 282 281 280 281 281 281 280 281 281 281 280 279 277 275 275 276 276 278 281 281 280 279 279 278 275 271 274 274 273 273 273 271 273 270 272 274 274 274 274 274 273 273 273 273 273 273 273 274 274 274 273 273 272 273 272 272 272 272 271 271 271 270 270 269 268
286 286 286 285 285 285 284 284 284 283 283 283 283 283 284 284 283 283 283 283 282 280 280 281 281 282 282 281 281 280 280 280 279 277 276 278 278 277 276 279 282 277 275 277 276 277 277 275 274 272 275 273 272 270 269 271 272 274 274 274 274 273 273 273 273 273 273 273 274 273 273 273 273 272 272 272 272 272 272 272 271 271 271 270 269 269 268
287 286 286 285 285 285 285 284 284 283 283 283 282 283 283 284 283 283 283 282 281 280 280 280 280 279 280 280 280 279 280 280 279 277 276 278 279 280 280 282 276 278 272 277 278 277 277 277 276 275 273 274 272 269 268 271 272 273 274 273 273 273 273 273 273 273 273 273 273 273 273 273 273 272 272 272 272 272 271 271 271 271 270 270 269 269 268
288 287 286 286 286 286 286 285 284 283 282 283 283 282 283 283 283 282 282 282 281 281 280 280 279 279 279 280 279 280 280 280 279 279 277 276 275 277 279 281 282 273 270 276 276 276 276 276 277 274 270 270 269 268 271 272 272 273 274 274 273 273 273 272 272 272 272 272 273 273 273 272 272 273 272 272 271 271 271 271 271 271 270 270 269 269 268
287 287 287 286 286 286 286 285 284 283 284 285 284 282 282 282 282 282 282 281 281 281 281 280 280 279 279 279 280 281 282 282 281 278 277 277 276 278 280 276 280 278 274 272 276 276 277 277 275 271 270 269 269 268 272 272 272 273 273 273 273 272 272 272 272 272 272 272 272 273 272 272 272 272 272 272 269 271 270 270 270 270 270 269 269 268 267
287 287 287 283 286 286 287 286 286 285 285 283 282 281 281 282 282 281 281 281 281 282 282 282 281 280 280 280 280 280 279 278 278 279 281 282 281 280 278 276 280 276 275 272 276 277 278 272 271 269 269 268 267 269 272 272 272 272 273 273 272 272 272 273 273 273 273 272 272 272 272 272 272 272 272 272 271 270 270 269 268 269 269 269 268 268 267
287 287 287 287 287 287 287 287 286 284 283 281 281 282 282 280 280 281 281 281 282 282 282 281 281 281 281 281 281 280 279 279 278 278 279 281 282 277 271 272 273 273 273 276 277 278 278 276 271 268 268 267 267 271 272 272 272 272 272 272 272 272 273 274 274 274 273 273 272 271 269 271 271 271 270 268 270 269 269 268 268 268 268 267 267 265 265
287 287 287 287 287 287 286 284 284 283 282 282 283 284 284 283 281 281 281 281 281 281 281 281 281 281 281 281 281 282 282 281 279 280 279 279 280 280 280 278 276 271 273 271 273 271 271 271 270 268 267 266 269 272 272 272 272 272 272 272 273 273 274 274 274 274 273 272 271 271 271 270 270 270 270 269 270 269 269 268 268 267 267 267 266 266 265
287 287 287 286 286 285 286 286 285 284 283 283 282 284 285 283 280 279 278 278 278 279 280 280 280 280 280 280 280 281 281 281 283 283 276 280 280 280 280 276 271 269 273 275 275 276 271 269 268 267 266 265 270 272 272 273 272 272 272 273 274 274 274 274 274 274 274 272 271 271 271 270 270 270 270 269 269 269 268 267 267 267 266 266 265 264 264
286 286 286 286 286 286 286 286 286 287 286 285 284 285 284 281 280 279 278 278 279 278 279 279 280 280 280 280 279 280 280 280 280 281 273 275 277 278 278 278 277 272 272 277 274 275 268 266 266 266 266 269 271 271 272 273 272 272 272 273 273 274 273 273 268 269 272 271 271 270 270 270 271 269 269 269 269 268 268 267 267 263 261 263 264 264 263
286 286 286 287 287 287 286 287 288 289 286 285 285 285 282 281 282 282 280 278 278 277 277 278 278 278 278 278 278 279 278 279 279 275 280 279 277 273 273 275 276 274 274 275 275 276 273 270 270 268 267 269 271 271 271 272 272 272 270 272 272 272 272 270 270 271 271 271 271 270 270 270 270 270 269 269 268 267 267 266 265 265 264 264 264 263 263
286 287 287 287 287 287 287 287 287 288 284 284 285 283 282 282 282 281 278 273 278 278 278 277 277 278 278 278 278 278 278 278 277 277 275 278 278 278 275 271 276 274 274 275 276 275 274 272 268 265 265 269 270 271 267 267 271 271 271 270 269 271 271 271 270 270 270 270 270 270 269 269 269 269 268 268 267 267 266 266 265 265 264 264 264 263 262
Wind_Speed
16 16 17 15 13 14 16 17 17 17 12 9 15 20 22 12 11 19 11 1 12 21 22 22 20 15 13 14 13 4 4 5 5 7 9 10 11 11 12 12 12 14 15 15 17 17 17 16 17 17 15 14 12 11 10 11 11 12 11 12 12 12 12 12 12 11 10 10 9 9 9 10 10 10 9 9 8 8 7 7 7 7 7 8 8 7 6
10 13 13 13 15 16 15 17 18 17 16 16 17 21 16 16 20 20 20 20 20 20 21 23 20 12 8 8 2 3 5 6 7 8 9 11 11 13 14 14 14 13 13 14 15 16 16 18 18 17 15 14 14 14 14 13 14 12 12 13 13 13 13 12 10 10 12 10 10 10 10 11 11 10 9 9 9 8 8 7 7 7 7 7 7 8 8
8 10 12 15 13 10 16 20 17 18 16 16 17 15 16 13 17 21 24 22 21 22 18 15 12 4 2 1 0 1 3 5 7 9 10 10 11 12 12 13 14 15 16 15 14 15 14 15 16 16 15 15 13 13 12 13 13 13 12 13 13 13 13 12 8 8 8 11 11 12 11 10 9 10 10 9 9 9 8 8 9 8 8 9 8 8 9
7 2 3 7 5 8 12 21 23 16 13 12 12 11 13 10 17 16 8 11 15 18 10 4 5 3 1 3 3 3 3 5 6 9 9 10 11 12 13 13 13 13 14 14 14 14 14 15 15 14 14 12 12 12 12 13 12 12 12 12 14 13 14 11 9 9 9 12 12 12 11 11 11 10 10 10 10 10 9 9 9 8 9 9 9 8 8
8 5 1 7 9 10 13 13 13 9 7 10 3 7 5 13 11 5 7 12 13 10 1 3 4 3 4 3 4 4 4 5 8 10 11 11 11 12 13 14 15 15 16 16 17 17 16 15 15 15 14 13 14 14 13 12 11 12 14 11 8 9 9 9 11 9 9 9 13 12 12 12 11 11 11 11 11 11 12 10 9 10 10 10 10 9 9
5 7 9 7 7 7 10 5 3 5 4 12 11 10 12 13 10 10 8 13 5 4 4 4 7 6 7 3 3 4 6 7 9 8 8 10 11 10 11 13 15 15 13 13 13 14 14 13 13 11 11 11 10 9 10 10 13 13 14 12 12 11 10 9 10 10 9 11 13 13 12 11 11 12 12 13 12 10 10 10 11 10 10 11 9 9 9
6 6 10 7 3 12 8 4 5 4 4 5 12 13 9 7 11 14 14 16 13 13 9 9 8 7 9 5 6 6 6 6 7 10 11 10 10 12 12 12 12 13 14 14 13 14 14 15 13 12 12 11 9 10 12 13 13 14 10 8 11 10 11 10 10 10 9 13 14 13 13 13 13 13 13 12 12 12 11 12 12 12 12 12 11 10 9
3 3 0 1 8 6 13 12 2 3 2 1 1 8 12 14 14 15 14 18 15 10 7 7 7 7 7 7 6 7 7 8 8 8 9 11 10 12 13 15 15 14 15 16 17 16 13 12 13 14 15 13 12 12 12 13 13 14 15 14 13 13 13 13 16 16 14 11 15 13 14 14 13 14 13 14 14 12 11 10 9 8 7 7 9 10 10
3 3 3 11 12 19 10 2 1 4 2 4 2 2 8 7 5 11 9 12 10 9 6 6 6 4 2 3 6 2 3 5 7 9 8 8 11 11 11 12 14 15 14 13 14 11 11 13 14 14 13 13 14 13 14 14 13 13 14 16 17 16 17 16 16 14 15 15 15 15 14 14 15 14 14 14 12 11 10 8 9 10 10 8 7 7 10
5 5 6 6 3 3 8 4 2 1 2 3 2 1 11 3 4 6 7 5 6 5 4 3 2 1 1 2 2 4 4 3 5 5 5 4 6 7 7 6 6 8 9 9 9 12 13 14 15 12 12 13 12 12 13 12 13 14 15 17 16 15 14 15 15 15 15 16 15 15 15 16 16 15 13 11 13 11 10 10 10 8 7 7 7 8 11
3 2 3 4 3 9 5 1 2 1 3 5 2 3 8 6 6 7 7 6 6 4 2 2 2 2 2 2 5 5 5 5 1 5 6 6 6 7 8 10 11 11 12 14 14 13 14 15 14 13 13 14 14 14 14 14 14 16 18 16 15 15 15 14 14 14 14 14 15 15 16 16 15 15 15 14 11 10 11 10 7 8 10 8 7 9 8
4 2 2 7 6 9 2 3 3 2 4 2 2 4 5 1 4 7 7 6 3 3 3 2 2 4 2 2 2 2 3 4 4 3 5 5 5 5 6 6 9 10 8 9 10 13 14 16 14 15 14 14 15 15 15 14 16 19 18 15 13 13 13 13 12 13 13 15 16 16 17 15 13 13 11 10 11 12 11 10 11 11 10 10 8 7 8
6 8 7 5 9 11 11 11 4 3 3 1 2 5 5 4 5 6 7 5 5 5 5 4 1 6 4 1 2 4 4 4 1 0 2 4 5 6 6 7 6 7 9 13 15 17 17 16 15 15 15 15 16 15 15 15 20 18 13 12 14 14 13 13 14 16 14 16 17 16 14 13 12 10 10 12 12 12 12 10 11 10 12 11 11 11 11
10 6 7 10 8 14 12 4 9 7 4 1 7 9 3 7 6 6 8 6 5 7 7 7 6 2 3 4 4 5 4 4 4 4 2 1 1 1 2 5 6 7 8 9 10 11 10 13 14 14 15 16 16 15 16 19 20 14 14 15 14 14 15 15 15 15 15 14 14 13 12 12 12 13 12 12 12 11 10 10 12 12 11 10 10 10 9
3 2 3 3 6 6 4 10 5 1 4 8 6 1 2 4 6 8 6 6 5 7 4 7 6 5 5 4 4 4 4 4 5 4 3 3 4 4 4 4 5 8 8 9 11 12 10 11 12 13 16 18 17 16 19 23 16 13 14 13 14 14 14 15 15 15 15 16 14 12 13 14 13 13 11 12 11 11 11 11 12 13 12 11 10 10 9
8 8 10 11 13 2 9 13 8 8 13 2 4 5 4 2 4 6 6 6 7 8 5 4 6 7 5 7 6 6 5 6 6 5 5 4 3 3 3 4 7 8 9 9 9 8 9 11 12 13 16 16 15 16 21 15 10 11 12 13 13 14 14 15 15 15 14 15 14 13 14 13 13 13 13 12 12 11 12 12 12 12 11 11 11 11 12
9 11 13 13 4 4 10 8 5 7 12 4 5 3 3 5 6 4 4 7 6 8 8 6 5 3 5 7 3 2 4 3 4 5 7 7 6 6 6 6 6 7 10 10 9 8 9 12 12 13 15 17 16 19 19 12 13 13 14 13 14 15 15 14 14 14 13 13 14 14 14 14 15 14 14 13 13 12 12 13 12 13 12 12 13 13 12
7 12 10 3 3 4 7 11 8 5 3 4 4 7 5 6 5 8 8 6 7 6 6 5 4 6 5 5 6 6 7 6 6 4 4 5 5 4 3 3 5 7 6 5 7 10 9 11 13 13 15 16 19 22 15 12 13 13 13 14 14 15 14 14 14 13 14 14 14 15 15 13 15 14 15 15 14 13 13 13 13 13 13 13 13 13 13
3 13 7 19 18 13 13 12 9 8 8 8 6 5 7 6 5 6 6 6 6 7 7 8 8 8 6 7 8 6 5 6 8 6 6 6 5 6 7 8 4 4 5 6 8 9 10 10 12 13 14 15 18 15 12 12 13 13 13 15 15 14 15 14 13 14 16 14 13 13 14 13 13 13 13 13 14 14 14 15 15 14 14 14 13 13 13
10 19 5 7 7 8 8 9 11 13 13 11 9 11 7 6 4 6 8 6 5 4 5 10 9 10 7 7 9 7 8 8 8 7 6 8 5 7 7 3 5 5 6 8 9 9 11 10 11 12 13 14 15 13 10 11 12 13 15 15 16 15 15 13 13 14 15 17 17 13 14 14 14 13 13 14 15 17 17 17 16 16 15 15 16 16 15
14 18 22 16 2 11 14 10 10 12 11 8 7 9 9 7 7 9 7 7 9 8 12 8 7 8 9 9 10 9 8 7 6 8 9 7 8 6 5 6 7 10 9 9 10 10 11 8 9 10 12 13 12 13 11 10 12 14 14 15 14 14 14 13 14 13 13 13 14 14 13 14 15 15 16 16 17 15 15 14 16 17 17 16 15 15 14
11 18 17 5 6 10 16 18 18 17 14 8 8 4 5 8 10 12 10 11 10 9 9 8 8 10 10 9 7 9 10 10 9 7 7 7 7 7 7 4 6 7 8 10 10 11 11 8 9 10 12 12 11 11 10 9 11 14 14 13 13 14 13 13 13 12 12 12 13 13 13 13 13 12 14 18 14 15 15 19 22 20 17 16 15 14 14
21 16 10 6 7 9 16 12 3 7 9 6 9 11 12 12 13 12 10 10 6 8 12 11 10 11 11 13 9 9 8 10 10 10 7 6 6 9 7 5 6 8 9 9 8 9 10 8 10 11 12 12 12 11 10 11 12 13 13 12 12 12 12 12 14 13 13 13 13 12 12 12 12 13 11 13 21 22 16 17 20 24 24 20 17 18 15
20 15 9 6 7 12 15 8 5 8 5 6 8 8 9 11 12 11 10 11 11 10 9 9 10 12 12 12 9 11 11 9 8 8 8 9 9 8 6 8 9 9 8 8 10 13 11 10 11 10 11 11 12 11 11 12 13 13 14 13 13 13 13 12 14 14 12 13 12 13 12 12 13 13 13 13 13 19 23 19 21 24 24 23 21 22 24
19 16 5 8 9 12 16 13 9 11 6 7 8 9 10 9 8 8 10 11 10 10 8 9 8 10 12 12 10 12 11 11 10 10 10 10 9 8 8 8 9 9 12 12 11 11 10 10 10 10 11 12 11 11 12 13 13 14 15 15 15 13 13 13 13 15 13 12 13 13 14 14 13 13 14 14 15 12 13 18 20 22 24 24 23 23 24
17 21 10 3 2 11 11 5 14 15 10 5 4 4 6 8 10 7 10 10 10 8 10 10 9 8 10 12 10 11 11 12 10 9 8 8 7 6 7 10 13 11 10 9 9 10 10 11 11 10 12 13 11 11 11 12 14 16 16 17 17 14 13 14 13 12 14 14 13 13 13 13 14 14 14 14 13 12 10 10 11 15 21 26 25 24 26
17 20 14 7 10 19 19 16 21 21 6 4 9 12 12 10 12 10 9 9 10 9 10 11 11 9 7 9 9 9 11 12 8 7 8 9 10 11 11 10 10 10 10 9 9 11 12 10 10 11 12 13 9 9 11 13 14 15 15 16 14 16 21 15 12 13 13 13 13 13 12 13 13 13 13 12 11 11 12 14 15 15 14 17 22 24 19
16 18 14 16 18 22 24 21 16 19 14 10 11 13 12 6 5 7 9 10 8 7 9 9 8 7 9 9 8 11 8 8 11 11 10 12 11 10 9 9 9 9 9 10 11 10 9 9 10 11 13 11 7 9 11 13 14 15 16 15 15 13 13 15 13 11 12 12 13 13 13 13 13 12 11 11 12 12 12 13 13 13 11 12 12 17 24
18 19 14 15 21 23 20 14 9 12 16 11 8 8 7 8 10 10 12 13 10 7 9 8 7 10 11 10 8 10 11 11 11 13 13 11 10 10 9 9 9 8 9 10 10 9 8 8 9 10 12 10 7 9 11 13 14 14 14 14 13 13 12 12 12 12 11 11 11 12 12 11 10 11 11 12 11 11 12 12 12 11 11 9 9 9 14
21 14 10 14 17 18 17 17 18 18 18 18 9 8 8 8 10 13 15 12 8 11 12 8 7 10 10 10 10 11 13 14 15 13 11 10 9 9 9 7 5 5 5 8 10 9 8 9 9 11 12 8 7 9 11 11 12 13 14 13 13 12 12 12 11 11 10 10 11 13 11 11 11 11 12 12 13 13 12 12 13 12 12 11 12 13 15
14 9 11 12 15 14 17 21 19 18 17 16 14 10 8 8 12 15 17 15 10 10 9 8 10 10 9 11 12 12 12 11 10 9 9 9 8 8 8 7 8 10 11 12 11 10 10 11 10 11 11 6 7 9 10 10 10 10 9 9 9 14 16 15 12 10 10 10 9 10 10 11 11 12 12 12 11 11 12 11 11 12 12 12 13 13 13
11 10 14 15 15 18 19 17 17 18 17 16 13 14 15 14 15 17 17 15 15 12 11 9 10 11 12 11 11 10 10 10 10 10 9 9 9 9 8 10 12 12 11 10 10 10 10 10 11 13 9 7 9 10 11 11 10 10 10 10 11 9 11 14 9 10 9 9 9 10 11 12 11 11 11 11 12 13 12 12 13 13 12 13 13 13 12
13 10 10 16 18 20 18 17 17 21 20 18 18 16 13 12 11 13 15 15 13 11 11 13 10 9 10 10 10 10 10 10 10 9 8 10 11 10 8 8 10 11 11 11 11 10 11 12 13 9 8 10 9 9 10 11 10 10 10 9 8 9 8 10 12 9 9 9 10 11 10 10 10 11 12 12 12 11 11 12 12 12 13 13 13 11 12
20 21 23 22 21 20 20 22 19 18 17 16 14 11 12 12 13 14 14 15 15 14 14 14 10 9 9 9 10 10 9 7 10 10 10 12 12 9 8 9 9 10 12 11 10 9 9 10 8 8 9 8 8 8 9 10 9 9 8 8 9 8 9 9 10 10 10 11 10 11 10 10 11 12 11 11 11 11 12 12 11 11 12 12 11 10 13
20 21 19 16 17 18 18 18 17 16 16 17 16 12 13 12 12 14 16 16 18 19 12 6 8 8 9 9 10 10 9 13 13 10 10 11 10 7 5 7 8 8 10 12 12 12 10 8 9 9 7 7 8 9 9 10 10 9 9 9 9 9 9 8 9 11 11 11 9 9 10 11 11 10 10 11 11 11 11 11 11 11 12 12 11 10 12
17 19 17 17 17 18 18 19 17 17 17 17 17 15 14 13 14 15 17 19 17 13 10 9 8 6 8 11 11 11 11 12 12 11 11 12 7 5 6 8 9 11 12 13 14 11 6 8 13 12 9 9 9 9 10 9 9 9 8 8 8 8 8 9 9 8 8 9 9 10 10 11 11 9 10 10 10 10 11 11 12 11 12 11 10 10 10
19 21 19 17 16 16 18 17 17 18 19 18 15 13 15 15 16 18 15 14 13 13 11 9 7 10 14 13 11 11 12 12 10 10 12 9 4 6 7 8 9 11 9 11 11 6 10 11 13 16 13 9 9 7 7 12 8 8 8 9 9 9 8 8 8 9 9 9 10 9 9 8 9 9 9 10 11 11 11 11 11 11 11 11 10 11 10
22 20 21 19 18 18 20 20 17 17 17 17 16 15 18 18 17 15 14 13 13 12 10 9 12 13 12 9 9 13 13 10 11 12 11 7 6 7 8 9 11 9 10 14 3 6 7 10 14 11 9 8 7 7 9 15 14 10 9 9 9 8 9 9 9 8 9 9 8 9 9 10 10 10 10 10 11 11 11 11 10 11 11 11 11 12 12
19 15 17 17 16 17 19 19 15 15 17 20 20 18 17 17 18 13 12 14 14 9 9 11 10 9 11 12 13 12 12 12 12 12 10 8 7 9 12 13 13 14 14 3 5 6 7 8 6 8 8 9 8 8 10 15 16 10 9 8 9 8 9 8 9 9 8 8 8 9 9 9 10 10 10 10 10 9 9 11 11 9 11 11 11 12 12
18 16 19 19 17 20 20 19 16 16 17 17 18 19 18 16 16 15 15 14 13 10 11 9 9 12 13 14 14 14 14 12 12 10 10 7 7 9 10 11 14 15 10 7 6 6 9 11 9 7 8 8 8 8 8 12 13 9 8 8 8 8 8 8 8 8 8 8 9 8 9 9 10 9 8 8 9 9 9 10 11 10 11 11 11 11 11
20 19 17 16 18 17 18 17 16 17 16 16 17 17 15 15 14 12 15 17 14 8 11 10 12 14 15 16 16 14 10 10 9 10 8 7 9 10 10 13 15 10 8 9 9 9 10 9 8 8 7 8 8 9 8 12 12 9 9 9 9 9 9 9 9 9 8 9 9 10 10 9 8 9 7 9 9 9 10 10 11 11 11 11 11 11 11
19 17 15 14 15 17 16 16 14 12 13 16 17 16 17 16 14 16 17 12 8 8 11 13 16 18 15 12 12 11 11 11 9 8 11 13 13 10 9 15 13 4 10 13 13 11 9 9 9 8 8 8 8 12 12 10 10 9 9 9 9 9 9 8 9 9 7 7 8 7 6 7 9 9 9 9 9 9 10 10 10 10 11 11 11 11 11
18 15 14 15 15 15 14 13 15 18 17 14 13 15 17 16 15 15 12 10 11 10 12 12 14 16 14 12 11 12 13 11 11 10 9 11 12 12 14 13 2 7 13 10 9 8 9 9 9 9 11 11 10 14 14 10 9 9 9 9 8 9 9 9 9 8 8 9 9 9 9 10 10 10 10 10 11 10 10 11 11 11 11 11 11 11 11
19 13 11 13 16 16 14 13 15 14 13 15 14 15 16 15 15 16 15 13 12 12 13 13 13 13 14 13 12 12 12 11 11 9 9 8 6 11 13 12 9 7 11 8 8 9 9 9 9 12 16 17 15 17 12 9 10 10 10 10 10 10 10 9 9 9 10 10 10 10 11 10 11 10 10 11 10 10 10 11 10 10 10 10 10 10 10
17 15 15 16 18 15 12 12 14 17 18 18 13 11 13 15 16 15 13 12 13 14 13 14 14 14 13 13 14 16 14 10 9 8 8 9 9 13 12 14 14 10 10 11 8 9 8 9 11 14 13 16 16 17 11 9 10 9 9 10 10 10 10 10 11 11 10 11 10 10 8 11 11 11 10 10 10 11 11 11 11 10 10 10 10 11 11
17 16 17 16 15 16 16 16 16 15 12 9 7 9 12 14 15 13 12 14 15 15 16 15 14 14 14 14 14 12 7 7 8 10 12 12 13 7 5 12 11 11 13 14 9 9 9 11 11 12 13 14 15 12 9 9 8 8 9 10 10 9 10 10 10 10 11 11 11 10 10 10 10 10 10 10 10 11 10 10 8 10 10 10 10 11 10
16 15 15 17 18 18 17 12 8 7 7 7 10 13 13 11 12 11 14 18 18 16 13 11 13 13 13 14 13 10 10 9 9 9 10 10 10 5 5 9 8 12 12 11 10 10 9 9 10 14 15 17 17 11 10 10 10 10 10 10 9 10 9 10 11 11 11 11 10 10 10 9 9 9 7 9 9 10 10 11 11 10 10 9 10 9 10
15 15 17 21 24 20 9 5 7 11 13 16 16 13 12 11 14 13 13 12 14 14 12 10 11 12 12 13 13 12 11 11 10 11 11 12 10 8 7 8 7 10 13 12 14 13 15 14 14 16 17 17 14 10 10 9 10 9 10 10 10 10 10 10 10 10 10 10 10 10 10 10 10 10 10 11 11 10 10 10 10 10 10 10 11 11 12
13 14 12 8 6 8 10 13 14 13 12 12 11 12 14 11 9 10 9 11 13 12 12 13 15 13 11 13 13 11 10 10 12 12 4 10 10 10 11 10 11 12 10 9 9 9 12 14 14 15 16 15 11 10 10 10 10 10 10 11 11 11 10 10 10 9 9 10 10 10 10 11 10 10 10 10 9 9 8 10 10 10 10 10 10 9 10
7 5 7 8 8 9 10 10 12 13 10 11 13 13 9 6 7 11 11 11 12 12 11 11 10 11 11 10 10 10 10 11 12 9 4 7 8 9 8 9 9 12 13 10 8 8 8 14 13 14 14 11 10 10 10 10 10 11 11 11 11 10 11 10 9 10 10 8 9 10 10 10 10 11 9 9 10 10 10 10 9 10 14 11 9 10 10
7 8 9 10 9 9 11 13 14 15 6 11 12 10 8 9 13 11 9 10 8 8 10 10 9 10 9 9 9 10 10 10 10 10 9 8 7 7 8 8 9 9 9 10 9 9 7 8 8 10 12 10 10 10 10 10 10 10 10 10 11 10 9 9 8 10 10 9 9 10 10 9 10 10 10 10 10 10 9 8 9 9 10 10 10 10 10
11 10 10 10 9 10 10 12 15 15 7 8 9 9 10 12 11 10 7 10 10 11 11 10 11 10 9 10 10 10 9 11 8 9 9 8 9 9 6 9 7 8 10 9 9 8 8 8 9 11 12 10 9 9 9 10 9 9 10 8 9 9 9 8 8 9 9 10 10 9 10 9 9 9 9 9 9 9 10 10 10 9 9 9 9 9 9
Wind_Direction
248 256 264 273 276 261 265 265 264 266 245 207 217 230 233 230 238 246 259 300 291 283 289 294 296 303 315 307 308 233 172 139 128 139 155 164 169 168 172 178 176 176 179 180 179 180 182 178 182 183 186 191 192 190 183 178 175 179 174 172 174 176 176 178 177 171 168 171 169 168 168 166 165 167 166 160 155 156 157 157 156 157 154 151 150 152 155
259 263 263 266 260 265 264 259 257 251 253 238 226 241 234 219 236 247 268 275 273 274 279 283 288 311 308 304 335 89 125 160 157 160 168 173 175 177 181 180 180 180 184 186 189 185 184 184 182 184 187 191 191 187 183 179 179 178 170 179 177 178 180 180 171 166 172 172 172 169 172 174 171 167 163 159 160 161 162 161 159 159 156 156 158 161 162
259 242 247 252 257 271 273 267 253 251 244 246 239 241 250 232 251 254 256 267 276 274 264 274 291 310 303 343 23 183 172 159 167 172 179 183 185 185 186 185 185 187 189 189 188 190 190 188 188 186 189 191 190 190 184 178 179 177 174 177 179 180 182 176 157 156 159 174 172 175 176 172 170 167 164 163 162 163 164 166 166 165 162 165 169 170 172
290 297 275 284 290 266 259 275 272 244 226 236 239 215 228 195 229 240 251 263 257 260 278 288 270 307 298 269 260 223 203 192 178 182 190 189 190 190 190 188 187 190 194 191 189 189 189 191 191 191 191 190 187 190 183 182 178 170 176 180 183 183 181 171 165 167 169 173 176 177 173 176 173 170 165 163 167 169 168 170 171 167 174 176 174 175 176
273 269 2 309 325 318 299 270 250 236 196 209 261 255 244 215 206 215 209 237 232 253 297 314 294 315 308 285 238 240 235 210 198 196 196 197 195 194 189 189 191 192 194 196 194 192 190 190 190 194 189 185 192 188 183 180 166 174 182 181 165 163 162 161 170 170 169 169 178 177 179 175 172 169 170 170 171 174 179 176 168 178 181 177 182 180 180
259 301 331 325 339 307 250 237 196 137 182 195 215 237 220 226 171 219 207 240 282 300 273 233 267 300 284 259 250 204 199 199 207 218 209 202 199 195 196 195 194 195 193 195 196 194 194 193 193 188 188 193 189 178 173 165 174 179 183 182 178 177 173 172 169 170 167 172 181 181 177 175 175 176 177 180 179 177 173 174 181 180 182 186 183 185 186
277 310 328 336 284 241 239 247 225 206 258 180 212 247 252 236 219 242 269 269 265 253 246 253 255 255 273 269 272 271 227 197 202 204 206 203 195 195 193 197 200 197 196 195 192 192 193 188 183 179 187 186 174 172 175 178 183 182 180 155 179 175 178 175 170 171 168 178 181 180 179 180 181 183 182 179 179 182 181 182 183 185 184 187 189 186 186
322 344 77 350 237 255 289 296 339 175 137 160 176 288 263 246 222 213 234 251 258 269 276 264 249 248 270 302 278 254 240 206 205 200 208 205 191 196 197 196 197 192 194 195 193 195 186 178 183 185 188 178 175 184 177 183 184 187 187 186 185 182 185 182 184 186 181 175 184 182 182 183 185 187 186 185 184 180 180 184 188 183 188 181 181 185 183
222 203 180 242 317 319 320 43 178 167 161 171 157 301 283 228 198 179 216 252 267 276 267 262 283 286 283 343 311 280 242 232 225 211 211 188 201 202 202 195 199 197 194 194 194 181 179 187 187 193 187 181 184 180 183 188 185 188 188 194 195 193 193 189 188 185 185 183 187 186 184 185 190 190 188 189 187 180 180 177 175 184 184 180 177 171 183
173 248 308 323 349 293 278 244 286 178 156 141 168 100 288 283 226 197 188 232 262 272 284 299 265 333 46 10 306 295 302 258 240 238 221 191 193 198 196 192 189 185 189 187 181 179 184 188 191 185 179 179 182 185 188 187 187 193 195 201 196 194 193 188 188 188 189 188 188 187 187 192 193 193 192 191 190 184 182 170 180 180 156 166 178 183 188
49 153 186 228 212 246 208 258 198 210 155 130 115 54 293 272 187 193 186 233 260 236 195 197 78 75 61 269 261 279 305 321 244 214 213 198 198 194 187 182 186 182 184 183 181 180 182 190 190 182 179 179 183 190 189 190 194 198 203 201 194 194 193 189 191 190 190 190 191 191 194 196 193 192 193 193 189 181 190 187 181 163 181 186 179 192 191
199 143 191 244 211 249 259 232 271 216 166 146 59 7 287 254 197 187 173 213 231 222 214 148 103 117 128 246 260 253 281 279 272 196 200 206 209 212 200 197 188 183 169 156 165 180 187 195 183 179 177 181 189 193 194 192 199 206 204 197 193 193 192 191 190 190 192 194 196 196 198 196 194 197 189 182 186 186 189 190 188 187 188 194 182 182 182
219 211 272 322 282 262 242 234 203 183 182 111 64 207 235 223 195 182 179 205 210 162 160 174 161 238 187 201 234 279 304 335 336 217 213 214 204 200 191 203 175 161 172 175 183 188 193 187 179 179 178 183 194 196 194 199 209 207 195 187 192 193 190 190 192 193 194 196 198 200 197 196 193 190 187 190 186 188 187 187 187 189 191 193 195 197 195
208 203 218 242 277 264 234 233 161 174 109 187 199 233 204 153 189 191 180 197 202 172 168 190 209 243 255 270 295 297 287 259 275 278 273 287 223 207 190 176 169 173 177 188 190 195 191 181 178 178 180 188 195 195 199 210 212 194 188 192 191 191 192 194 194 195 196 198 198 198 194 189 189 194 194 192 192 189 186 187 189 192 190 192 194 195 197
71 159 206 314 281 283 122 124 78 242 155 232 209 175 232 202 174 165 204 196 205 170 204 219 225 268 289 278 275 271 279 283 276 284 278 224 214 199 163 164 191 171 179 192 196 192 184 179 180 182 183 192 196 198 206 215 201 188 191 189 189 191 194 195 196 196 196 194 195 194 194 192 192 195 189 190 191 185 187 188 190 192 192 192 191 195 196
160 171 183 205 215 183 176 153 169 205 214 187 172 140 183 233 165 178 187 226 204 197 190 200 229 235 258 297 264 270 272 249 261 280 289 292 292 277 246 205 183 180 189 194 197 192 182 182 181 183 185 196 200 205 218 212 186 187 187 190 188 192 195 197 196 196 195 195 196 196 194 190 193 193 191 190 189 190 189 190 191 193 195 192 193 196 197
177 196 211 229 222 192 207 218 210 207 218 192 176 159 186 179 231 190 158 217 215 196 202 218 208 250 219 228 241 222 255 275 244 232 230 227 226 224 214 218 195 188 197 197 191 187 188 184 186 187 191 194 199 210 218 190 192 183 187 187 190 196 197 196 197 196 193 195 195 196 194 189 192 193 192 186 191 193 189 194 195 196 197 192 197 199 198
257 269 237 293 280 221 250 248 237 241 270 251 176 191 215 242 204 170 191 213 209 204 202 192 243 215 231 223 249 238 251 253 260 248 273 267 247 247 257 248 199 204 208 202 187 197 199 192 191 191 195 195 199 215 206 189 188 184 183 187 192 198 197 197 197 190 194 198 197 197 194 195 197 194 192 190 194 191 191 197 198 198 198 196 200 200 201
132 260 196 219 238 242 232 237 249 248 236 232 193 212 219 230 187 201 222 204 197 195 179 196 214 233 222 228 244 241 249 245 247 242 237 251 231 221 221 223 181 189 189 200 209 206 207 204 200 200 199 203 211 212 194 190 184 183 184 189 195 196 197 197 194 192 196 197 196 196 197 198 198 197 196 194 195 194 195 197 198 199 200 198 198 199 201
203 248 174 218 232 256 264 247 254 252 244 233 220 222 228 222 204 197 216 194 232 170 195 211 211 235 222 209 239 240 234 237 242 243 237 244 248 235 228 212 186 190 191 206 213 211 217 210 204 206 208 211 214 210 197 185 183 182 189 192 195 196 196 194 195 195 199 198 194 197 199 197 197 200 200 197 197 200 197 197 195 200 199 199 199 198 200
242 271 268 247 341 302 276 255 234 238 241 232 230 226 234 238 245 247 234 194 217 195 224 215 212 232 241 216 223 228 236 241 242 237 236 235 235 245 229 217 185 197 200 208 215 213 223 212 205 209 215 217 217 212 203 189 181 185 193 195 195 197 195 195 200 197 200 198 199 199 200 202 207 202 197 197 203 210 210 201 199 196 197 202 202 201 197
236 232 249 118 212 242 253 249 247 254 252 229 232 205 214 222 232 240 241 238 225 227 236 228 212 219 240 239 217 227 230 233 234 237 234 230 228 237 239 207 194 209 209 209 213 217 224 206 202 209 216 218 216 211 201 191 184 191 195 192 197 201 197 198 201 196 199 201 201 203 202 204 206 216 219 213 209 206 209 206 207 209 202 204 198 193 196
240 242 247 176 214 249 250 260 217 220 249 238 228 222 222 227 229 231 225 239 247 231 237 225 214 222 226 240 229 230 232 235 231 230 231 229 220 226 223 210 217 209 218 215 220 226 226 208 209 211 213 213 211 206 195 190 187 195 190 194 202 206 199 204 200 197 198 201 202 203 204 203 204 209 212 218 219 218 216 206 206 209 210 211 199 197 195
257 261 249 155 205 238 262 258 240 252 218 181 217 221 217 217 218 219 219 219 222 233 232 232 214 220 228 234 228 236 238 237 239 236 233 228 228 225 200 202 214 213 221 215 215 224 224 212 215 215 218 217 210 202 192 190 190 193 193 194 202 205 204 206 202 200 201 202 199 200 205 203 203 203 208 212 221 220 216 208 205 208 211 210 204 197 200
246 249 215 193 217 249 259 271 263 257 219 185 221 227 221 229 236 218 215 226 225 226 238 240 226 213 224 235 224 230 235 235 223 229 232 229 226 216 212 205 213 211 217 214 216 220 221 213 214 216 217 224 210 198 191 189 187 194 197 200 205 206 204 204 203 201 201 201 202 201 203 202 205 204 206 209 213 214 214 212 208 208 210 211 207 201 199
242 255 229 176 233 250 260 300 275 255 247 205 244 258 235 222 236 217 218 220 233 230 238 247 247 226 208 228 227 228 240 246 236 223 230 235 237 227 218 213 217 217 220 218 218 219 220 214 211 212 219 226 211 196 188 187 189 197 200 203 206 206 203 202 199 199 202 204 202 203 204 204 205 206 210 210 212 205 194 194 208 214 214 212 209 204 201
233 245 247 253 261 260 254 242 257 260 241 193 214 239 240 235 230 235 239 234 234 230 229 232 231 231 215 225 233 227 223 243 250 240 227 230 231 228 224 223 221 219 218 219 223 223 219 216 212 216 224 229 210 187 186 187 192 200 205 207 210 214 211 202 200 203 202 204 204 204 202 204 206 206 210 209 207 202 198 198 200 203 204 208 209 203 200
229 235 218 223 236 244 250 245 246 269 269 243 242 244 252 235 239 248 251 250 243 236 236 232 226 229 232 228 218 245 241 240 241 239 229 231 231 232 230 225 221 217 219 221 228 226 219 216 216 219 230 230 201 183 186 188 194 202 206 208 210 211 213 209 206 205 204 204 203 203 203 205 204 204 202 201 203 208 207 206 205 205 208 206 204 205 200
231 231 219 220 234 245 255 266 262 258 263 244 220 240 248 256 249 243 250 249 246 237 240 229 215 222 224 231 208 228 237 237 237 242 239 233 230 229 230 226 221 215 217 225 232 229 222 219 220 224 235 228 195 186 190 192 197 203 206 207 209 211 212 209 208 207 206 203 203 205 204 201 197 201 200 201 203 207 209 208 206 205 203 194 187 198 203
233 223 211 225 235 247 257 259 254 253 254 256 235 227 225 229 256 262 257 257 240 236 240 224 209 222 215 225 217 216 226 234 235 237 240 239 232 227 225 220 213 231 239 242 238 229 220 222 221 226 236 226 189 193 195 196 205 209 210 209 209 210 212 209 206 206 204 204 204 200 200 198 200 200 203 201 202 203 205 207 203 199 198 195 192 195 196
241 222 217 227 236 239 239 246 250 249 251 257 251 239 232 213 232 252 262 261 253 244 242 216 222 226 215 219 224 220 225 236 241 240 240 240 238 227 216 190 195 223 223 228 229 223 221 223 222 227 232 205 181 190 190 197 204 208 214 215 217 218 217 211 205 202 204 203 198 196 201 198 201 200 204 202 200 201 205 205 202 201 201 198 198 200 198
233 213 214 226 230 236 237 242 249 251 246 248 252 244 234 224 226 236 248 256 254 249 252 236 225 224 224 225 229 228 226 232 238 240 239 239 238 230 209 204 215 225 228 226 225 219 219 220 226 231 219 199 194 189 189 195 197 201 208 209 212 212 215 211 207 204 201 203 198 199 202 200 203 199 202 201 202 202 200 201 203 202 201 200 202 201 189
207 218 223 224 230 233 237 238 235 247 246 241 236 237 239 235 235 240 245 248 255 248 243 247 236 224 225 227 231 232 233 235 240 241 239 242 241 233 212 212 219 225 231 230 226 218 212 216 226 227 214 212 202 195 192 194 193 201 205 202 205 206 201 203 205 201 200 199 202 205 201 200 200 198 205 203 202 199 201 204 203 202 204 205 206 196 189
203 212 215 209 207 216 220 231 230 238 247 246 240 231 230 231 232 235 245 251 252 250 241 243 238 225 222 223 226 230 229 238 248 242 234 240 242 234 215 212 221 225 233 237 237 232 226 225 227 226 222 212 201 194 195 194 196 200 199 191 198 196 198 200 197 198 200 206 207 201 198 200 201 203 203 201 199 199 202 203 202 201 204 206 203 196 192
217 226 226 222 219 222 219 224 228 229 233 243 244 231 226 226 226 232 235 242 246 247 244 226 231 223 220 225 227 227 218 228 240 242 243 239 242 227 206 216 230 238 245 245 237 236 224 219 221 226 219 209 203 201 194 194 192 196 196 194 193 195 197 190 193 199 204 207 197 197 202 204 207 203 199 195 198 198 200 201 202 200 203 202 201 190 192
214 228 229 225 224 220 220 223 226 227 229 230 234 235 232 224 226 229 233 236 242 249 250 238 228 217 222 226 230 227 228 233 236 240 245 247 227 171 186 206 219 232 241 257 245 231 209 219 224 215 212 213 211 207 194 189 190 191 190 187 193 197 196 196 199 201 204 198 200 203 204 205 200 197 195 197 196 195 199 201 202 201 202 200 193 188 186
214 222 227 225 226 224 226 224 220 224 228 229 229 229 234 232 228 231 231 238 238 237 235 230 222 225 233 230 227 229 228 228 227 230 240 238 181 176 192 215 221 231 234 255 257 173 198 214 219 210 213 216 215 202 188 179 182 188 185 192 195 193 192 192 195 197 203 202 203 202 200 195 200 200 195 195 198 200 199 202 201 199 199 197 189 187 185
224 216 224 221 224 225 229 228 221 223 229 233 229 225 229 233 233 230 228 230 231 227 218 211 218 227 234 236 230 231 232 224 226 232 238 218 180 185 207 215 231 223 227 237 197 149 193 206 213 205 212 214 206 193 187 188 187 184 190 193 193 191 191 194 195 199 200 200 199 197 197 199 200 201 200 201 204 202 201 202 198 196 197 193 192 191 191
243 222 226 224 223 229 235 235 223 223 223 225 228 226 228 230 237 231 229 229 227 210 201 214 215 223 229 228 234 233 230 226 227 230 227 208 185 187 217 218 225 219 225 186 151 193 183 196 188 196 201 208 198 200 190 192 189 189 190 190 190 193 194 195 197 199 200 195 191 198 198 201 203 206 203 203 204 204 203 202 198 195 196 195 193 195 195
240 228 222 222 219 226 231 235 226 223 224 221 225 227 227 224 232 229 233 237 231 199 204 202 201 219 227 228 231 235 230 224 228 224 216 193 183 213 243 255 246 244 229 187 197 191 191 184 182 190 199 196 193 192 190 186 187 190 187 188 192 191 196 194 194 195 197 189 198 197 202 205 207 205 204 200 200 204 203 200 200 199 199 198 199 198 195
232 229 224 217 222 226 228 230 230 226 224 222 223 227 226 223 223 221 229 231 231 198 206 199 207 223 226 226 227 233 234 228 223 215 190 160 196 211 223 247 248 231 206 203 214 213 194 187 191 193 199 187 192 182 181 178 182 190 189 189 189 191 192 192 196 195 191 195 197 199 203 202 199 205 204 203 206 205 205 203 203 202 200 201 201 198 198
235 230 224 219 222 226 224 225 229 232 230 223 220 218 225 225 217 219 227 223 213 190 198 207 210 220 227 225 229 230 232 229 221 203 181 192 202 201 206 245 243 184 189 198 212 213 207 203 203 203 193 183 183 183 173 172 184 188 189 191 192 192 192 192 195 200 195 194 195 197 195 197 200 206 205 206 208 208 206 204 204 205 205 203 202 200 198
237 228 219 219 225 226 219 218 222 226 230 226 216 215 219 225 225 230 229 216 206 199 201 210 213 221 224 220 218 223 230 227 222 213 209 223 212 201 205 239 167 180 188 188 198 198 206 209 203 209 189 182 183 177 171 172 182 184 189 188 190 190 195 194 197 190 186 190 195 197 196 198 201 204 203 206 209 207 204 205 207 206 204 203 203 199 199
236 229 216 219 225 226 214 212 223 229 234 238 220 211 214 221 225 224 222 216 212 208 207 211 208 212 214 212 211 222 229 219 219 210 204 233 250 249 232 240 237 195 181 189 185 200 205 208 207 200 189 186 175 170 174 180 181 187 188 188 189 191 193 193 191 190 194 196 198 199 200 200 202 204 203 205 206 207 206 208 208 206 203 203 202 200 198
232 224 217 217 222 224 213 209 214 220 223 229 222 210 215 221 228 224 219 215 215 216 212 214 210 208 207 202 210 218 220 213 205 172 177 219 233 250 221 216 228 225 204 190 194 202 212 210 207 193 186 185 177 173 177 181 184 188 189 190 191 191 193 194 196 197 199 200 202 202 200 202 204 203 204 205 203 205 205 205 206 202 200 202 200 198 197
227 224 221 222 224 225 220 211 215 219 227 227 229 229 225 223 226 222 215 215 218 220 217 213 211 209 204 208 218 223 228 221 203 197 205 205 203 231 156 183 211 216 200 192 206 212 221 211 193 182 182 181 176 175 188 180 182 184 190 192 194 193 196 199 197 199 200 201 202 202 204 205 203 206 204 204 203 204 205 199 201 202 203 201 201 200 198
225 225 221 220 226 228 226 219 210 207 208 206 221 234 230 218 216 215 217 216 219 224 221 215 216 216 208 205 203 200 211 223 237 222 220 228 235 228 182 188 192 196 190 196 210 213 216 196 187 183 179 177 175 184 189 184 186 189 191 194 194 197 200 202 200 202 199 203 201 202 202 201 202 203 201 205 203 203 202 198 204 202 199 197 197 192 193
227 229 228 223 225 230 221 196 200 210 205 212 218 226 231 219 213 218 218 216 221 225 223 220 221 220 212 211 213 211 205 193 223 247 208 217 218 215 214 209 201 181 189 198 207 216 207 197 189 184 182 175 179 189 189 188 187 189 192 196 196 200 200 203 203 204 202 201 195 197 198 200 200 201 200 203 206 203 201 200 203 200 197 196 197 193 192
240 243 259 266 243 219 202 214 221 224 216 217 216 226 229 221 211 211 212 214 214 218 222 224 223 222 216 215 212 214 212 204 201 231 180 185 202 208 217 213 195 183 185 196 203 214 202 199 189 182 177 174 185 191 192 191 191 191 196 199 202 202 201 203 206 201 200 200 198 199 200 199 200 199 203 202 205 203 200 203 203 199 200 194 194 191 192
248 258 249 223 214 215 208 219 232 237 203 199 214 223 210 168 205 225 207 202 205 209 213 219 218 220 216 214 211 215 212 210 224 225 164 184 189 201 199 197 197 194 194 199 203 205 191 190 184 180 176 187 192 191 193 194 195 196 199 200 200 203 204 202 198 196 200 197 196 199 200 201 202 200 200 200 202 201 201 201 201 200 192 190 194 192 190
218 219 232 234 219 219 209 213 229 243 194 184 211 212 193 193 220 223 200 196 196 201 219 220 221 217 213 212 215 216 212 214 215 215 218 216 200 198 196 192 189 192 196 199 200 202 183 180 186 181 186 190 193 196 196 198 199 199 199 201 201 200 197 194 197 199 201 200 198 197 199 200 198 198 200 203 198 199 197 195 195 193 192 197 193 192 190
226 221 225 228 224 221 217 225 235 246 219 181 198 195 204 210 220 220 195 182 189 207 211 209 227 225 200 209 212 215 209 206 205 207 210 213 211 215 201 189 188 190 191 197 202 194 187 185 182 185 187 189 195 197 201 197 198 199 203 203 203 203 201 198 197 199 201 197 197 200 200 201 198 198 203 201 199 198 196 195 195 193 191 194 192 188 186